Las Vegas, NM

4:57 AM MDT on June 27, 2017 (GMT -0600)
Las Vegas Municipal

Weather History for KLVS - March, 2012

Change the Weather History Date:

Friday, March 23, 2012

  Actual Average Record
Temperature  
Mean Temperature 50 °F -  
Max Temperature 73 °F 55 °F 73 °F (2012)
Min Temperature 28 °F 25 °F 6 °F (1952)
Degree Days  
Heating Degree Days 15    
Moisture  
Dew Point 15 °F    
Average Humidity 32    
Maximum Humidity 75    
Minimum Humidity 7    
Precipitation  
Precipitation 0.00 in - - ()
Sea Level Pressure  
Sea Level Pressure 29.93 in    
Wind  
Wind Speed 7 mph (SW)    
Max Wind Speed 15 mph    
Max Gust Speed 23 mph    
Visibility 10 miles    
Events      
Averages and records for this station are not official NWS values.
T = Trace of Precipitation, MM = Missing Value Source: NWS Daily Summary

Daily Weather History Graph

Daily Weather History Graph

Search for Another Location

Airport or City:

Trip Planner

Search our weather history database for the weather conditions in past years. The results will help you decide how hot, cold, wet, or windy it might be!

Date:

Astronomy

Mar. 23, 2012 Rise Set
Actual Time 6:59 AM MDT 7:15 PM MDT
Civil Twilight 6:33 AM MDT 7:40 PM MDT
Nautical Twilight 6:03 AM MDT 8:10 PM MDT
Astronomical Twilight 5:33 AM MDT 8:41 PM MDT
Moon 7:12 AM MDT (3/23) 8:35 PM MDT (3/23)
Length of Visible Light 13h 07m
Length of Day
12h 16m
New Moon, 1% of the Moon is Illuminated
Mar 23
New Moon
Mar 30
First Quarter
Apr 6
Full
Apr 13
Last Quarter
Apr 21
New

Hourly Weather History & Observations

Time (MDT) Temp. Windchill Dew Point Humidity Pressure Visibility Wind Dir Wind Speed Gust Speed Precip Events Conditions
12:53 AM 37.0 °F 32.4 °F 26.1 °F 65% 29.93 in 10.0 mi WSW 5.8 mph - N/A   Clear
1:53 AM 35.1 °F 27.9 °F 25.0 °F 67% 29.94 in 10.0 mi SW 9.2 mph - N/A   Clear
2:53 AM 28.0 °F 22.8 °F 19.9 °F 72% 29.96 in 10.0 mi NNW 4.6 mph - N/A   Clear
3:53 AM 34.0 °F 28.8 °F 24.1 °F 67% 29.91 in 10.0 mi West 5.8 mph - N/A   Clear
4:53 AM 35.1 °F 29.3 °F 24.1 °F 64% 29.89 in 10.0 mi West 6.9 mph - N/A   Clear
5:53 AM 28.9 °F 22.8 °F 21.9 °F 75% 29.93 in 10.0 mi NNE 5.8 mph - N/A   Clear
6:53 AM 28.9 °F 22.8 °F 19.9 °F 69% 29.97 in 10.0 mi NNE 5.8 mph - N/A   Clear
7:53 AM 36.0 °F 31.1 °F 23.0 °F 59% 29.99 in 10.0 mi NNE 5.8 mph - N/A   Clear
8:53 AM 45.0 °F 41.2 °F 21.0 °F 39% 29.98 in 10.0 mi NNE 6.9 mph - N/A   Clear
9:53 AM 55.0 °F - 21.9 °F 28% 29.96 in 10.0 mi NNE 5.8 mph - N/A   Clear
10:53 AM 62.1 °F - 18.0 °F 18% 29.94 in 10.0 mi Calm Calm - N/A   Clear
11:53 AM 64.9 °F - 17.1 °F 16% 29.92 in 10.0 mi Variable 3.5 mph - N/A   Clear
12:53 PM 66.9 °F - 12.0 °F 12% 29.91 in 10.0 mi Calm Calm - N/A   Clear
1:53 PM 70.0 °F - 9.0 °F 9% 29.88 in 10.0 mi SE 9.2 mph - N/A   Clear
2:53 PM 71.1 °F - 10.9 °F 10% 29.88 in 10.0 mi Variable 5.8 mph 18.4 mph N/A   Clear
3:53 PM 72.0 °F - 12.0 °F 10% 29.86 in 10.0 mi South 12.7 mph 19.6 mph N/A   Clear
4:53 PM 71.1 °F - 10.0 °F 9% 29.85 in 10.0 mi South 12.7 mph 20.7 mph N/A   Clear
5:05 PM 71.6 °F - 6.8 °F 8% 30.06 in 10.0 mi SSW 9.2 mph 23.0 mph N/A   Clear
5:53 PM 70.0 °F - 3.9 °F 7% 29.87 in 10.0 mi SSW 15.0 mph 21.9 mph N/A   Clear
6:53 PM 64.0 °F - 6.1 °F 10% 29.92 in 10.0 mi SW 13.8 mph - N/A   Clear
7:53 PM 53.1 °F - 7.0 °F 16% 29.95 in 10.0 mi SSW 15.0 mph - N/A   Clear
8:53 PM 51.1 °F - 7.0 °F 17% 29.95 in 10.0 mi SSW 13.8 mph - N/A   Clear
9:53 PM 46.9 °F - 7.0 °F 20% 29.94 in 10.0 mi SSW 11.5 mph - N/A   Clear
10:53 PM 54.0 °F - 6.1 °F 15% 29.88 in 10.0 mi SSW 6.9 mph - N/A   Clear
11:53 PM 48.0 °F - 6.1 °F 18% 29.89 in 10.0 mi SSW 9.2 mph - N/A   Clear